Location: New Town
(33.2710°N, 90.7534°W)
Time: 12:56:31
(UTC+00:00)

Vanguard 2 Rocket - All Passes

Search period start: 13 May 2021 00:00
Search period end: 23 May 2021 00:00
Orbit: 554 x 3326 km, 32.9° (Epoch: 12 May)

Date Brightness Start Highest point End Pass type
(mag) Time Alt. Az. Time Alt. Az. Time Alt. Az.
13 May - 11:21:01 10° SSW 11:24:37 24° SE 11:29:29 10° E daylight
13 May - 13:31:34 10° WSW 13:37:06 77° SSE 13:46:54 10° E daylight
13 May - 15:43:42 10° W 15:51:30 86° S 16:05:56 10° E daylight
13 May - 17:56:35 10° W 18:07:14 59° SSW 18:24:51 10° SE daylight
13 May - 20:11:53 10° W 20:23:56 30° SW 20:39:38 10° SSE daylight
14 May - 10:24:06 10° SSE 10:25:36 12° SE 10:27:14 10° ESE visible
14 May - 12:32:47 10° WSW 12:37:29 59° SSE 12:45:11 10° E daylight
14 May - 14:44:35 10° W 14:51:08 89° S 15:03:14 10° E daylight
14 May - 16:57:02 10° W 17:06:11 68° SSW 17:22:25 10° ESE daylight
14 May - 19:11:01 10° W 19:22:25 38° SSW 19:38:58 10° SSE daylight
14 May - 21:32:01 10° WSW 21:39:18 14° SW 21:47:19 10° SSW daylight
15 May - 11:34:11 10° SW 11:38:11 38° SSE 11:43:55 10° E daylight
15 May - 13:45:36 10° W 13:51:07 87° S 14:00:57 10° E daylight
15 May - 15:57:46 10° W 16:05:30 77° SSW 16:19:47 10° ESE daylight
15 May - 18:10:52 10° W 18:21:08 46° SSW 18:37:32 10° SE daylight
15 May - 20:27:55 10° WSW 20:37:45 20° SW 20:49:49 10° S daylight
16 May - 10:35:56 10° SSW 10:39:06 22° SSE 10:42:54 10° E visible
16 May - 12:46:41 10° WSW 12:51:25 77° SSE 12:59:14 10° E daylight
16 May - 14:58:40 10° W 15:05:12 84° S 15:17:14 10° ESE daylight
16 May - 17:11:12 10° W 17:20:09 54° SSW 17:35:35 10° SE daylight
16 May - 19:26:10 10° W 19:36:19 27° SSW 19:50:11 10° SSE daylight
17 May - 09:38:51 10° SSE 09:39:59 11° SE 09:41:08 10° SE visible
17 May - 11:47:50 10° WSW 11:52:00 58° SSE 11:58:05 10° E daylight
17 May - 13:59:40 10° W 14:05:11 88° S 14:15:00 10° E daylight
17 May - 16:11:51 10° W 16:19:30 63° SSW 16:33:20 10° ESE daylight
17 May - 18:25:31 10° W 18:35:05 33° SSW 18:49:31 10° SSE daylight
17 May - 20:47:36 10° SW 20:51:46 11° SW 20:56:16 10° SSW daylight
18 May - 10:49:06 10° SW 10:52:46 36° SSE 10:57:23 10° E daylight
18 May - 13:00:43 10° W 13:05:27 87° S 13:13:17 10° E daylight
18 May - 15:12:44 10° W 15:19:13 72° SSW 15:31:04 10° ESE daylight
18 May - 17:25:34 10° W 17:34:08 40° SSW 17:48:10 10° SE daylight
18 May - 19:42:40 10° WSW 19:50:20 17° SSW 19:59:49 10° S daylight
19 May - 09:50:35 10° SSW 09:53:39 21° SSE 09:56:55 10° E visible
19 May - 12:01:45 10° WSW 12:05:57 77° S 12:12:09 10° E daylight
19 May - 14:13:45 10° W 14:19:15 81° S 14:29:01 10° ESE daylight
19 May - 16:26:05 10° W 16:33:31 48° SSW 16:46:27 10° SE daylight
19 May - 18:40:56 10° WSW 18:49:08 22° SSW 19:00:26 10° SSE daylight
20 May - 08:52:42 10° S 08:54:25 12° SSE 08:56:05 10° SE visible
20 May - 11:02:47 10° WSW 11:06:38 57° SSE 11:11:34 10° E daylight
20 May - 13:14:48 10° W 13:19:31 87° S 13:27:21 10° E daylight
20 May - 15:26:52 10° W 15:33:15 57° SSW 15:44:36 10° ESE daylight
20 May - 17:40:24 10° W 17:48:12 28° SSW 17:59:58 10° SSE daylight
21 May - 10:03:47 10° SW 10:07:27 37° SSE 10:11:24 10° E visible
21 May - 12:15:49 10° W 12:20:00 87° S 12:26:13 10° E daylight
21 May - 14:27:50 10° W 14:33:17 67° SSW 14:42:50 10° ESE daylight
21 May - 16:40:34 10° W 16:47:35 34° SSW 16:58:57 10° SE daylight
21 May - 18:58:28 10° SW 19:03:19 13° SSW 19:09:02 10° S daylight
22 May - 09:04:50 10° SSW 09:08:16 23° SSE 09:11:28 10° E visible
22 May - 11:16:43 10° WSW 11:20:38 77° S 11:25:39 10° E daylight
22 May - 13:28:52 10° W 13:33:35 77° S 13:41:21 10° ESE daylight
22 May - 15:41:09 10° W 15:47:18 41° SSW 15:57:39 10° SE daylight
22 May - 17:56:16 10° WSW 18:02:23 17° SSW 18:10:29 10° S daylight
